Time,TemperatureF,DewpointF,PressureIn,WindDirection,WindDirectionDegrees,WindSpeedMPH,WindSpeedGustMPH,Humidity,HourlyPrecipIn,Conditions,Clouds,dailyrainin,SoftwareType,DateUTC
2013-05-07 00:01:00,43.0,43.0,30.24,West,270,6.0,15.0,100,0.00,,,0.00,Weather View 32 v70,2013-05-07 04:01:00,
2013-05-07 00:06:00,43.0,43.0,30.23,SW,225,6.0,15.0,100,0.00,,,0.00,Weather View 32 v70,2013-05-07 04:06:00,
2013-05-07 00:11:00,43.0,43.0,30.23,WSW,247,6.0,15.0,100,0.00,,,0.00,Weather View 32 v70,2013-05-07 04:11:00,
2013-05-07 00:16:00,43.0,43.0,30.23,South,180,5.0,15.0,100,0.00,,,0.00,Weather View 32 v70,2013-05-07 04:16:00,
2013-05-07 00:21:00,42.0,42.0,30.23,NE,45,1.0,13.0,100,0.00,,,0.00,Weather View 32 v70,2013-05-07 04:21:00,
2013-05-07 00:26:00,43.0,43.0,30.22,SSW,202,4.0,13.0,100,0.00,,,0.00,Weather View 32 v70,2013-05-07 04:26:00,
2013-05-07 00:31:00,43.0,43.0,30.22,North,360,2.0,13.0,100,0.00,,,0.00,Weather View 32 v70,2013-05-07 04:31:00,
2013-05-07 00:36:00,43.0,43.0,30.22,SSE,157,4.0,13.0,100,0.00,,,0.00,Weather View 32 v70,2013-05-07 04:36:00,
2013-05-07 00:41:00,43.0,43.0,30.22,SSW,202,6.0,13.0,100,0.00,,,0.00,Weather View 32 v70,2013-05-07 04:41:00,
2013-05-07 00:46:00,43.0,43.0,30.22,SSW,202,1.0,13.0,100,0.00,,,0.00,Weather View 32 v70,2013-05-07 04:46:00,
2013-05-07 00:51:00,43.0,43.0,30.22,SW,225,5.0,13.0,100,0.00,,,0.00,Weather View 32 v70,2013-05-07 04:51:00,
2013-05-07 00:56:00,43.0,43.0,30.22,SW,225,0.0,13.0,100,0.00,,,0.00,Weather View 32 v70,2013-05-07 04:56:00,
2013-05-07 01:01:00,43.0,43.0,30.22,WSW,247,4.0,12.0,100,0.00,,,0.00,Weather View 32 v70,2013-05-07 05:01:00,
2013-05-07 01:06:00,43.0,43.0,30.22,SW,225,5.0,12.0,100,0.00,,,0.00,Weather View 32 v70,2013-05-07 05:06:00,
2013-05-07 01:11:00,43.0,43.0,30.22,West,270,3.0,12.0,100,0.00,,,0.00,Weather View 32 v70,2013-05-07 05:11:00,
2013-05-07 01:16:00,43.0,43.0,30.22,WSW,247,3.0,12.0,100,0.00,,,0.00,Weather View 32 v70,2013-05-07 05:16:00,
2013-05-07 01:21:00,43.0,43.0,30.22,SE,135,2.0,10.0,100,0.00,,,0.00,Weather View 32 v70,2013-05-07 05:21:00,
2013-05-07 01:26:00,43.0,43.0,30.22,West,270,2.0,10.0,100,0.00,,,0.00,Weather View 32 v70,2013-05-07 05:26:00,
2013-05-07 01:31:00,43.0,43.0,30.22,South,180,6.0,10.0,100,0.00,,,0.00,Weather View 32 v70,2013-05-07 05:31:00,
2013-05-07 01:36:00,43.0,43.0,30.22,SW,225,7.0,10.0,100,0.00,,,0.00,Weather View 32 v70,2013-05-07 05:36:00,
2013-05-07 01:41:00,43.0,43.0,30.22,SSW,202,2.0,9.0,100,0.00,,,0.00,Weather View 32 v70,2013-05-07 05:41:00,
2013-05-07 01:46:00,43.0,43.0,30.22,SSE,157,0.0,9.0,100,0.00,,,0.00,Weather View 32 v70,2013-05-07 05:46:00,
2013-05-07 01:51:00,43.0,43.0,30.21,SSW,202,5.0,9.0,100,0.00,,,0.00,Weather View 32 v70,2013-05-07 05:51:00,
2013-05-07 01:56:00,43.0,43.0,30.22,West,270,0.0,9.0,100,0.00,,,0.00,Weather View 32 v70,2013-05-07 05:56:00,
2013-05-07 02:01:00,43.0,43.0,30.21,SSW,202,7.0,9.0,100,0.00,,,0.00,Weather View 32 v70,2013-05-07 06:01:00,
2013-05-07 02:06:00,43.0,43.0,30.21,SW,225,4.0,9.0,100,0.00,,,0.00,Weather View 32 v70,2013-05-07 06:06:00,
2013-05-07 02:11:00,43.0,43.0,30.21,SSE,157,2.0,9.0,100,0.00,,,0.00,Weather View 32 v70,2013-05-07 06:11:00,
2013-05-07 02:16:00,43.0,43.0,30.21,SW,225,3.0,9.0,100,0.00,,,0.00,Weather View 32 v70,2013-05-07 06:16:00,
2013-05-07 02:21:00,43.0,43.0,30.21,West,270,0.0,9.0,100,0.00,,,0.00,Weather View 32 v70,2013-05-07 06:21:00,
2013-05-07 02:26:00,43.0,43.0,30.21,West,270,0.0,9.0,100,0.00,,,0.00,Weather View 32 v70,2013-05-07 06:26:00,
2013-05-07 02:31:00,43.0,43.0,30.19,SW,225,6.0,9.0,100,0.00,,,0.00,Weather View 32 v70,2013-05-07 06:31:00,
2013-05-07 02:36:00,44.0,44.0,30.21,WSW,247,2.0,9.0,100,0.00,,,0.00,Weather View 32 v70,2013-05-07 06:36:00,
2013-05-07 02:41:00,43.0,43.0,30.21,SSW,202,1.0,9.0,100,0.00,,,0.00,Weather View 32 v70,2013-05-07 06:41:00,
2013-05-07 02:46:00,43.0,43.0,30.21,SSW,202,4.0,9.0,100,0.00,,,0.00,Weather View 32 v70,2013-05-07 06:46:00,
2013-05-07 02:51:00,43.0,43.0,30.21,WSW,247,1.0,9.0,100,0.00,,,0.00,Weather View 32 v70,2013-05-07 06:51:00,
2013-05-07 02:56:00,43.0,43.0,30.21,WSW,247,9.0,12.0,100,0.00,,,0.00,Weather View 32 v70,2013-05-07 06:56:00,
2013-05-07 03:01:00,43.0,43.0,30.20,WSW,247,6.0,12.0,100,0.00,,,0.00,Weather View 32 v70,2013-05-07 07:01:00,
2013-05-07 03:06:00,43.0,43.0,30.20,WSW,247,4.0,12.0,100,0.00,,,0.00,Weather View 32 v70,2013-05-07 07:06:00,
2013-05-07 03:11:00,43.0,43.0,30.20,SW,225,1.0,12.0,100,0.00,,,0.00,Weather View 32 v70,2013-05-07 07:11:00,
2013-05-07 03:16:00,43.0,43.0,30.20,SW,225,0.0,12.0,100,0.00,,,0.00,Weather View 32 v70,2013-05-07 07:16:00,
2013-05-07 03:21:00,43.0,43.0,30.20,SSW,202,5.0,12.0,100,0.00,,,0.00,Weather View 32 v70,2013-05-07 07:21:00,
2013-05-07 03:26:00,43.0,43.0,30.20,North,360,0.0,12.0,100,0.00,,,0.00,Weather View 32 v70,2013-05-07 07:26:00,
2013-05-07 03:31:00,43.0,43.0,30.20,SW,225,3.0,12.0,100,0.00,,,0.00,Weather View 32 v70,2013-05-07 07:31:00,
2013-05-07 03:36:00,43.0,43.0,30.20,SW,225,5.0,12.0,100,0.00,,,0.00,Weather View 32 v70,2013-05-07 07:36:00,
2013-05-07 03:41:00,44.0,44.0,30.20,WSW,247,2.0,12.0,100,0.00,,,0.00,Weather View 32 v70,2013-05-07 07:41:00,
2013-05-07 03:46:00,44.0,44.0,30.20,WSW,247,7.0,12.0,100,0.00,,,0.00,Weather View 32 v70,2013-05-07 07:46:00,
2013-05-07 03:51:00,44.0,44.0,30.20,SSW,202,9.0,12.0,100,0.00,,,0.00,Weather View 32 v70,2013-05-07 07:51:00,
2013-05-07 03:56:00,44.0,44.0,30.20,SSW,202,6.0,12.0,100,0.00,,,0.00,Weather View 32 v70,2013-05-07 07:56:00,
2013-05-07 04:01:00,44.0,44.0,30.20,SW,225,6.0,12.0,100,0.00,,,0.00,Weather View 32 v70,2013-05-07 08:01:00,
2013-05-07 04:06:00,43.0,43.0,30.20,SSW,202,8.0,12.0,100,0.00,,,0.00,Weather View 32 v70,2013-05-07 08:06:00,
2013-05-07 04:11:00,43.0,43.0,30.20,SSW,202,3.0,12.0,100,0.00,,,0.00,Weather View 32 v70,2013-05-07 08:11:00,
2013-05-07 04:16:00,43.0,43.0,30.20,SW,225,7.0,12.0,100,0.00,,,0.00,Weather View 32 v70,2013-05-07 08:16:00,
2013-05-07 04:21:00,43.0,43.0,30.20,SSE,157,3.0,12.0,100,0.00,,,0.00,Weather View 32 v70,2013-05-07 08:21:00,
2013-05-07 04:26:00,43.0,43.0,30.22,NW,315,2.0,12.0,100,0.00,,,0.00,Weather View 32 v70,2013-05-07 08:26:00,
2013-05-07 04:31:00,44.0,44.0,30.22,SSW,202,3.0,12.0,100,0.00,,,0.00,Weather View 32 v70,2013-05-07 08:31:00,
2013-05-07 04:36:00,43.0,43.0,30.18,SSW,202,7.0,12.0,100,0.00,,,0.00,Weather View 32 v70,2013-05-07 08:36:00,
2013-05-07 04:41:00,43.0,43.0,30.18,SSW,202,3.0,12.0,100,0.00,,,0.00,Weather View 32 v70,2013-05-07 08:41:00,
2013-05-07 04:46:00,43.0,43.0,30.17,SSW,202,7.0,12.0,100,0.00,,,0.00,Weather View 32 v70,2013-05-07 08:46:00,
2013-05-07 04:51:00,43.0,43.0,30.20,SW,225,6.0,12.0,100,0.00,,,0.00,Weather View 32 v70,2013-05-07 08:51:00,
2013-05-07 04:56:00,43.0,43.0,30.18,SW,225,6.0,12.0,100,0.00,,,0.00,Weather View 32 v70,2013-05-07 08:56:00,
2013-05-07 05:01:00,43.0,43.0,30.20,WSW,247,5.0,12.0,100,0.00,,,0.00,Weather View 32 v70,2013-05-07 09:01:00,
2013-05-07 05:06:00,43.0,43.0,30.19,SW,225,4.0,12.0,100,0.00,,,0.00,Weather View 32 v70,2013-05-07 09:06:00,
2013-05-07 05:11:00,43.0,43.0,30.20,SSW,202,6.0,12.0,100,0.00,,,0.00,Weather View 32 v70,2013-05-07 09:11:00,
2013-05-07 05:16:00,43.0,43.0,30.20,South,180,5.0,12.0,100,0.00,,,0.00,Weather View 32 v70,2013-05-07 09:16:00,
2013-05-07 05:21:00,43.0,43.0,30.20,SW,225,3.0,12.0,100,0.00,,,0.00,Weather View 32 v70,2013-05-07 09:21:00,
2013-05-07 05:26:00,43.0,43.0,30.20,SW,225,6.0,12.0,100,0.00,,,0.00,Weather View 32 v70,2013-05-07 09:26:00,
2013-05-07 05:31:00,43.0,43.0,30.20,NNW,337,2.0,12.0,100,0.00,,,0.00,Weather View 32 v70,2013-05-07 09:31:00,
2013-05-07 05:36:00,43.0,43.0,30.20,SW,225,7.0,12.0,100,0.00,,,0.00,Weather View 32 v70,2013-05-07 09:36:00,
2013-05-07 05:41:00,43.0,43.0,30.20,South,180,3.0,10.0,100,0.00,,,0.00,Weather View 32 v70,2013-05-07 09:41:00,
2013-05-07 05:46:00,43.0,43.0,30.20,WSW,247,1.0,10.0,100,0.00,,,0.00,Weather View 32 v70,2013-05-07 09:46:00,
2013-05-07 05:51:00,43.0,43.0,30.20,West,270,1.0,10.0,100,0.00,,,0.00,Weather View 32 v70,2013-05-07 09:51:00,
2013-05-07 05:56:00,43.0,43.0,30.20,SSW,202,5.0,10.0,100,0.00,,,0.00,Weather View 32 v70,2013-05-07 09:56:00,
2013-05-07 06:01:00,43.0,43.0,30.20,ESE,112,0.0,10.0,100,0.00,,,0.00,Weather View 32 v70,2013-05-07 10:01:00,
2013-05-07 06:06:00,43.0,43.0,30.20,ENE,67,1.0,10.0,100,0.00,,,0.00,Weather View 32 v70,2013-05-07 10:06:00,
2013-05-07 06:11:00,43.0,43.0,30.21,WSW,247,4.0,10.0,100,0.00,,,0.00,Weather View 32 v70,2013-05-07 10:11:00,
2013-05-07 06:16:00,43.0,43.0,30.20,WSW,247,3.0,10.0,100,0.00,,,0.00,Weather View 32 v70,2013-05-07 10:16:00,
2013-05-07 06:21:00,43.0,43.0,30.20,SSW,202,2.0,10.0,100,0.00,,,0.00,Weather View 32 v70,2013-05-07 10:21:00,
2013-05-07 06:26:00,43.0,43.0,30.21,SW,225,5.0,11.0,100,0.00,,,0.00,Weather View 32 v70,2013-05-07 10:26:00,
2013-05-07 06:31:00,43.0,43.0,30.21,West,270,4.0,11.0,100,0.00,,,0.00,Weather View 32 v70,2013-05-07 10:31:00,
2013-05-07 06:36:00,43.0,43.0,30.21,WSW,247,5.0,11.0,100,0.00,,,0.00,Weather View 32 v70,2013-05-07 10:36:00,
2013-05-07 06:41:00,43.0,43.0,30.21,SW,225,5.0,11.0,100,0.00,,,0.00,Weather View 32 v70,2013-05-07 10:41:00,
2013-05-07 06:46:00,43.0,43.0,30.21,WSW,247,1.0,11.0,100,0.00,,,0.00,Weather View 32 v70,2013-05-07 10:46:00,
2013-05-07 06:51:00,43.0,43.0,30.21,WSW,247,7.0,11.0,100,0.00,,,0.00,Weather View 32 v70,2013-05-07 10:51:00,
2013-05-07 06:56:00,44.0,44.0,30.22,West,270,4.0,11.0,100,0.00,,,0.00,Weather View 32 v70,2013-05-07 10:56:00,
2013-05-07 07:01:00,44.0,44.0,30.21,WSW,247,3.0,11.0,100,0.00,,,0.00,Weather View 32 v70,2013-05-07 11:01:00,
2013-05-07 07:06:00,43.0,43.0,30.22,NNW,337,1.0,11.0,100,0.00,,,0.00,Weather View 32 v70,2013-05-07 11:06:00,
2013-05-07 07:11:00,44.0,44.0,30.22,WNW,292,1.0,12.0,100,0.00,,,0.00,Weather View 32 v70,2013-05-07 11:11:00,
2013-05-07 07:16:00,43.0,43.0,30.22,SW,225,4.0,12.0,100,0.00,,,0.00,Weather View 32 v70,2013-05-07 11:16:00,
2013-05-07 07:21:00,44.0,44.0,30.22,SW,225,7.0,12.0,100,0.00,,,0.00,Weather View 32 v70,2013-05-07 11:21:00,
2013-05-07 07:26:00,44.0,44.0,30.22,NNW,337,1.0,12.0,100,0.00,,,0.00,Weather View 32 v70,2013-05-07 11:26:00,
2013-05-07 07:31:00,44.0,44.0,30.22,South,180,0.0,12.0,100,0.00,,,0.00,Weather View 32 v70,2013-05-07 11:31:00,
2013-05-07 07:36:00,45.0,45.0,30.23,SSE,157,1.0,12.0,100,0.00,,,0.00,Weather View 32 v70,2013-05-07 11:36:00,
2013-05-07 07:41:00,45.0,45.0,30.23,WSW,247,2.0,12.0,100,0.00,,,0.00,Weather View 32 v70,2013-05-07 11:41:00,
2013-05-07 07:46:00,44.0,44.0,30.24,SW,225,7.0,12.0,100,0.00,,,0.00,Weather View 32 v70,2013-05-07 11:46:00,
2013-05-07 07:51:00,45.0,45.0,30.24,WSW,247,6.0,12.0,100,0.00,,,0.00,Weather View 32 v70,2013-05-07 11:51:00,
2013-05-07 07:56:00,45.0,45.0,30.24,WSW,247,4.0,12.0,100,0.00,,,0.00,Weather View 32 v70,2013-05-07 11:56:00,
2013-05-07 08:01:00,46.0,46.0,30.24,SW,225,2.0,12.0,100,0.00,,,0.00,Weather View 32 v70,2013-05-07 12:01:00,
2013-05-07 08:06:00,46.0,46.0,30.25,SSW,202,4.0,12.0,100,0.00,,,0.00,Weather View 32 v70,2013-05-07 12:06:00,
2013-05-07 08:11:00,46.0,46.0,30.24,South,180,2.0,10.0,100,0.00,,,0.00,Weather View 32 v70,2013-05-07 12:11:00,
2013-05-07 08:16:00,45.0,45.0,30.25,SW,225,6.0,10.0,100,0.00,,,0.00,Weather View 32 v70,2013-05-07 12:16:00,
2013-05-07 08:21:00,45.0,45.0,30.25,SSW,202,9.0,10.0,100,0.00,,,0.00,Weather View 32 v70,2013-05-07 12:21:00,
2013-05-07 08:26:00,46.0,46.0,30.25,SSW,202,7.0,10.0,100,0.00,,,0.00,Weather View 32 v70,2013-05-07 12:26:00,
2013-05-07 08:31:00,46.0,46.0,30.26,SSW,202,6.0,10.0,100,0.00,,,0.00,Weather View 32 v70,2013-05-07 12:31:00,
2013-05-07 08:38:00,46.0,46.0,30.25,SSW,202,7.0,10.0,100,0.00,,,0.00,Weather View 32 v70,2013-05-07 12:38:00,
2013-05-07 08:43:00,47.0,47.0,30.25,SSW,202,9.0,10.0,100,0.00,,,0.00,Weather View 32 v70,2013-05-07 12:43:00,
2013-05-07 08:48:00,47.0,47.0,30.26,SSW,202,7.0,10.0,100,0.00,,,0.00,Weather View 32 v70,2013-05-07 12:48:00,
2013-05-07 08:53:00,47.0,47.0,30.26,SSW,202,7.0,10.0,100,0.00,,,0.00,Weather View 32 v70,2013-05-07 12:53:00,
2013-05-07 08:58:00,46.0,46.0,30.26,SW,225,9.0,10.0,100,0.00,,,0.00,Weather View 32 v70,2013-05-07 12:58:00,
2013-05-07 09:03:00,47.0,47.0,30.26,SSW,202,6.0,10.0,100,0.00,,,0.00,Weather View 32 v70,2013-05-07 13:03:00,
2013-05-07 09:08:00,47.0,47.0,30.26,SSW,202,8.0,10.0,100,0.00,,,0.00,Weather View 32 v70,2013-05-07 13:08:00,
2013-05-07 09:13:00,46.0,46.0,30.26,SSW,202,8.0,10.0,100,0.00,,,0.00,Weather View 32 v70,2013-05-07 13:13:00,
2013-05-07 09:18:00,47.0,47.0,30.26,SW,225,9.0,10.0,100,0.00,,,0.00,Weather View 32 v70,2013-05-07 13:18:00,
2013-05-07 09:23:00,48.0,47.7,30.26,SSW,202,7.0,10.0,99,0.00,,,0.00,Weather View 32 v70,2013-05-07 13:23:00,
2013-05-07 09:28:00,48.0,47.7,30.27,SSW,202,9.0,10.0,99,0.00,,,0.00,Weather View 32 v70,2013-05-07 13:28:00,
2013-05-07 09:33:00,48.0,47.5,30.27,SSW,202,7.0,10.0,98,0.00,,,0.00,Weather View 32 v70,2013-05-07 13:33:00,
2013-05-07 09:38:00,48.0,47.2,30.27,SSE,157,6.0,10.0,97,0.00,,,0.00,Weather View 32 v70,2013-05-07 13:38:00,
2013-05-07 09:43:00,49.0,48.2,30.27,SSE,157,2.0,10.0,97,0.00,,,0.00,Weather View 32 v70,2013-05-07 13:43:00,
2013-05-07 09:48:00,50.0,48.9,30.28,SW,225,7.0,10.0,96,0.00,,,0.00,Weather View 32 v70,2013-05-07 13:48:00,
2013-05-07 09:53:00,50.0,48.1,30.30,SW,225,6.0,10.0,93,0.00,,,0.00,Weather View 32 v70,2013-05-07 13:53:00,
2013-05-07 09:58:00,51.0,48.5,30.30,ESE,112,2.0,10.0,91,0.00,,,0.00,Weather View 32 v70,2013-05-07 13:58:00,
2013-05-07 10:03:00,52.0,48.5,30.30,SSW,202,7.0,10.0,88,0.00,,,0.00,Weather View 32 v70,2013-05-07 14:03:00,
2013-05-07 10:08:00,51.0,47.6,30.30,West,270,6.0,11.0,88,0.00,,,0.00,Weather View 32 v70,2013-05-07 14:08:00,
2013-05-07 10:13:00,51.0,47.9,30.30,WSW,247,6.0,12.0,89,0.00,,,0.00,Weather View 32 v70,2013-05-07 14:13:00,
2013-05-07 10:18:00,52.0,48.2,30.30,WSW,247,6.0,12.0,87,0.00,,,0.00,Weather View 32 v70,2013-05-07 14:18:00,
2013-05-07 10:23:00,52.0,48.2,30.30,SSW,202,7.0,12.0,87,0.00,,,0.00,Weather View 32 v70,2013-05-07 14:23:00,
2013-05-07 10:28:00,52.0,47.9,30.30,SSW,202,9.0,12.0,86,0.00,,,0.00,Weather View 32 v70,2013-05-07 14:28:00,
2013-05-07 10:33:00,52.0,47.9,30.30,SSW,202,7.0,12.0,86,0.00,,,0.00,Weather View 32 v70,2013-05-07 14:33:00,
2013-05-07 10:38:00,53.0,48.6,30.30,SSW,202,7.0,12.0,85,0.00,,,0.00,Weather View 32 v70,2013-05-07 14:38:00,
2013-05-07 10:43:00,55.0,49.3,30.30,SSW,202,8.0,12.0,81,0.00,,,0.00,Weather View 32 v70,2013-05-07 14:43:00,
2013-05-07 10:48:00,55.0,48.6,30.31,SSE,157,2.0,12.0,79,0.00,,,0.00,Weather View 32 v70,2013-05-07 14:48:00,
2013-05-07 10:53:00,56.0,49.2,30.31,SSW,202,6.0,12.0,78,0.00,,,0.00,Weather View 32 v70,2013-05-07 14:53:00,
2013-05-07 10:58:00,56.0,49.2,30.31,SSW,202,6.0,12.0,78,0.00,,,0.00,Weather View 32 v70,2013-05-07 14:58:00,
2013-05-07 11:03:00,56.0,49.2,30.31,SSW,202,10.0,12.0,78,0.00,,,0.00,Weather View 32 v70,2013-05-07 15:03:00,
2013-05-07 11:08:00,56.0,49.2,30.31,SSW,202,6.0,12.0,78,0.00,,,0.00,Weather View 32 v70,2013-05-07 15:08:00,
2013-05-07 11:13:00,57.0,48.4,30.32,SSW,202,2.0,12.0,73,0.00,,,0.00,Weather View 32 v70,2013-05-07 15:13:00,
2013-05-07 11:18:00,57.0,48.8,30.32,SSW,202,13.0,13.0,74,0.00,,,0.00,Weather View 32 v70,2013-05-07 15:18:00,
2013-05-07 11:23:00,56.0,49.2,30.31,South,180,10.0,13.0,78,0.00,,,0.00,Weather View 32 v70,2013-05-07 15:23:00,
2013-05-07 11:28:00,56.0,48.9,30.30,South,180,6.0,13.0,77,0.00,,,0.00,Weather View 32 v70,2013-05-07 15:28:00,
2013-05-07 11:33:00,56.0,48.5,30.30,SSW,202,13.0,13.0,76,0.00,,,0.00,Weather View 32 v70,2013-05-07 15:33:00,
2013-05-07 11:38:00,56.0,48.5,30.30,SSW,202,10.0,14.0,76,0.00,,,0.00,Weather View 32 v70,2013-05-07 15:38:00,
2013-05-07 11:43:00,56.0,48.5,30.30,SSW,202,10.0,15.0,76,0.00,,,0.00,Weather View 32 v70,2013-05-07 15:43:00,
2013-05-07 11:48:00,56.0,48.5,30.30,South,180,11.0,15.0,76,0.00,,,0.00,Weather View 32 v70,2013-05-07 15:48:00,
2013-05-07 11:53:00,56.0,48.5,30.30,SSW,202,13.0,15.0,76,0.00,,,0.00,Weather View 32 v70,2013-05-07 15:53:00,
2013-05-07 11:58:00,56.0,48.5,30.30,SW,225,7.0,17.0,76,0.00,,,0.00,Weather View 32 v70,2013-05-07 15:58:00,
2013-05-07 12:03:00,57.0,49.1,30.29,SSW,202,12.0,17.0,75,0.00,,,0.00,Weather View 32 v70,2013-05-07 16:03:00,
2013-05-07 12:08:00,58.0,49.4,30.30,SW,225,7.0,17.0,73,0.00,,,0.00,Weather View 32 v70,2013-05-07 16:08:00,
2013-05-07 12:13:00,58.0,49.4,30.30,South,180,8.0,17.0,73,0.00,,,0.00,Weather View 32 v70,2013-05-07 16:13:00,
2013-05-07 12:18:00,58.0,49.4,30.30,SSW,202,13.0,17.0,73,0.00,,,0.00,Weather View 32 v70,2013-05-07 16:18:00,
2013-05-07 12:23:00,59.0,49.6,30.30,SSW,202,12.0,17.0,71,0.00,,,0.00,Weather View 32 v70,2013-05-07 16:23:00,
2013-05-07 12:28:00,59.0,48.8,30.30,SW,225,13.0,17.0,69,0.00,,,0.00,Weather View 32 v70,2013-05-07 16:28:00,
2013-05-07 12:33:00,59.0,48.4,30.30,SW,225,9.0,17.0,68,0.00,,,0.00,Weather View 32 v70,2013-05-07 16:33:00,
2013-05-07 12:38:00,60.0,49.8,30.31,SSW,202,12.0,17.0,69,0.00,,,0.00,Weather View 32 v70,2013-05-07 16:38:00,
2013-05-07 12:43:00,60.0,49.0,30.31,SW,225,12.0,17.0,67,0.00,,,0.00,Weather View 32 v70,2013-05-07 16:43:00,
2013-05-07 12:48:00,61.0,49.9,30.31,SSW,202,10.0,17.0,67,0.00,,,0.00,Weather View 32 v70,2013-05-07 16:48:00,
2013-05-07 12:53:00,61.0,49.1,30.30,SSW,202,5.0,17.0,65,0.00,,,0.00,Weather View 32 v70,2013-05-07 16:53:00,
2013-05-07 12:58:00,62.0,49.7,30.31,SW,225,9.0,17.0,64,0.00,,,0.00,Weather View 32 v70,2013-05-07 16:58:00,
2013-05-07 13:03:00,63.0,49.7,30.31,SSW,202,12.0,17.0,62,0.00,,,0.00,Weather View 32 v70,2013-05-07 17:03:00,
2013-05-07 13:08:00,63.0,49.3,30.32,SSW,202,14.0,17.0,61,0.00,,,0.00,Weather View 32 v70,2013-05-07 17:08:00,
2013-05-07 13:13:00,63.0,49.3,30.32,SSW,202,14.0,17.0,61,0.00,,,0.00,Weather View 32 v70,2013-05-07 17:13:00,
2013-05-07 13:18:00,64.0,49.8,30.32,SSW,202,13.0,17.0,60,0.00,,,0.00,Weather View 32 v70,2013-05-07 17:18:00,
2013-05-07 13:23:00,63.0,48.9,30.32,SSW,202,13.0,17.0,60,0.00,,,0.00,Weather View 32 v70,2013-05-07 17:23:00,
2013-05-07 13:28:00,63.0,49.3,30.31,SSW,202,11.0,19.0,61,0.00,,,0.00,Weather View 32 v70,2013-05-07 17:28:00,
2013-05-07 13:33:00,63.0,49.3,30.31,SSW,202,15.0,20.0,61,0.00,,,0.00,Weather View 32 v70,2013-05-07 17:33:00,
2013-05-07 13:38:00,63.0,49.7,30.32,SSW,202,16.0,20.0,62,0.00,,,0.00,Weather View 32 v70,2013-05-07 17:38:00,
2013-05-07 13:43:00,63.0,49.3,30.31,SSW,202,14.0,22.0,61,0.00,,,0.00,Weather View 32 v70,2013-05-07 17:43:00,
2013-05-07 13:48:00,63.0,48.9,30.31,SW,225,16.0,22.0,60,0.00,,,0.00,Weather View 32 v70,2013-05-07 17:48:00,
2013-05-07 13:53:00,64.0,49.8,30.31,West,270,7.0,22.0,60,0.00,,,0.00,Weather View 32 v70,2013-05-07 17:53:00,
2013-05-07 13:58:00,63.0,48.9,30.32,SSW,202,12.0,22.0,60,0.00,,,0.00,Weather View 32 v70,2013-05-07 17:58:00,
2013-05-07 14:03:00,63.0,48.9,30.31,SW,225,16.0,22.0,60,0.00,,,0.00,Weather View 32 v70,2013-05-07 18:03:00,
2013-05-07 14:08:00,61.0,49.1,30.31,SSW,202,19.0,22.0,65,0.00,,,0.00,Weather View 32 v70,2013-05-07 18:08:00,
2013-05-07 14:13:00,60.0,48.6,30.31,SSW,202,15.0,22.0,66,0.00,,,0.00,Weather View 32 v70,2013-05-07 18:13:00,
2013-05-07 14:18:00,59.0,48.0,30.30,SSW,202,16.0,22.0,67,0.00,,,0.00,Weather View 32 v70,2013-05-07 18:18:00,
2013-05-07 14:23:00,60.0,49.4,30.29,SSW,202,15.0,22.0,68,0.00,,,0.00,Weather View 32 v70,2013-05-07 18:23:00,
2013-05-07 14:28:00,60.0,49.0,30.29,SSW,202,15.0,22.0,67,0.00,,,0.00,Weather View 32 v70,2013-05-07 18:28:00,
2013-05-07 14:33:00,60.0,48.6,30.29,SSW,202,10.0,22.0,66,0.00,,,0.00,Weather View 32 v70,2013-05-07 18:33:00,
2013-05-07 14:38:00,61.0,49.1,30.28,South,180,11.0,22.0,65,0.00,,,0.00,Weather View 32 v70,2013-05-07 18:38:00,
2013-05-07 14:43:00,62.0,48.8,30.29,SSW,202,16.0,20.0,62,0.00,,,0.00,Weather View 32 v70,2013-05-07 18:43:00,
2013-05-07 14:48:00,62.0,49.2,30.29,SSW,202,9.0,20.0,63,0.00,,,0.00,Weather View 32 v70,2013-05-07 18:48:00,
2013-05-07 14:53:00,62.0,49.2,30.29,South,180,8.0,20.0,63,0.00,,,0.00,Weather View 32 v70,2013-05-07 18:53:00,
2013-05-07 14:58:00,62.0,48.8,30.29,SSE,157,10.0,20.0,62,0.00,,,0.00,Weather View 32 v70,2013-05-07 18:58:00,
2013-05-07 15:03:00,61.0,48.7,30.29,SSW,202,17.0,20.0,64,0.00,,,0.00,Weather View 32 v70,2013-05-07 19:03:00,
2013-05-07 15:08:00,61.0,48.3,30.29,SSW,202,12.0,20.0,63,0.00,,,0.00,Weather View 32 v70,2013-05-07 19:08:00,
2013-05-07 15:15:00,61.0,48.7,30.29,SSW,202,13.0,20.0,64,0.00,,,0.00,Weather View 32 v70,2013-05-07 19:15:00,
2013-05-07 15:20:00,61.0,48.7,30.29,SSW,202,17.0,20.0,64,0.00,,,0.00,Weather View 32 v70,2013-05-07 19:20:00,
2013-05-07 15:25:00,61.0,48.7,30.28,SSW,202,9.0,20.0,64,0.00,,,0.00,Weather View 32 v70,2013-05-07 19:25:00,
2013-05-07 15:30:00,62.0,49.2,30.29,SSW,202,9.0,20.0,63,0.00,,,0.00,Weather View 32 v70,2013-05-07 19:30:00,
2013-05-07 15:35:00,62.0,49.7,30.28,South,180,11.0,20.0,64,0.00,,,0.00,Weather View 32 v70,2013-05-07 19:35:00,
2013-05-07 15:40:00,62.0,48.8,30.29,SW,225,15.0,20.0,62,0.00,,,0.00,Weather View 32 v70,2013-05-07 19:40:00,
2013-05-07 15:45:00,62.0,49.2,30.29,SW,225,15.0,20.0,63,0.00,,,0.00,Weather View 32 v70,2013-05-07 19:45:00,
2013-05-07 15:50:00,61.0,48.7,30.29,SW,225,14.0,20.0,64,0.00,,,0.00,Weather View 32 v70,2013-05-07 19:50:00,
2013-05-07 15:55:00,61.0,49.1,30.28,WSW,247,4.0,20.0,65,0.00,,,0.00,Weather View 32 v70,2013-05-07 19:55:00,
2013-05-07 16:00:00,61.0,48.3,30.28,SSW,202,14.0,20.0,63,0.00,,,0.00,Weather View 32 v70,2013-05-07 20:00:00,
2013-05-07 16:05:00,61.0,48.7,30.29,SSW,202,9.0,22.0,64,0.00,,,0.00,Weather View 32 v70,2013-05-07 20:05:00,
2013-05-07 16:10:00,61.0,48.7,30.28,South,180,12.0,22.0,64,0.00,,,0.00,Weather View 32 v70,2013-05-07 20:10:00,
2013-05-07 16:15:00,61.0,48.7,30.29,SSW,202,15.0,22.0,64,0.00,,,0.00,Weather View 32 v70,2013-05-07 20:15:00,
2013-05-07 16:20:00,61.0,48.7,30.29,SW,225,14.0,22.0,64,0.00,,,0.00,Weather View 32 v70,2013-05-07 20:20:00,
2013-05-07 16:25:00,61.0,47.9,30.28,SSW,202,7.0,22.0,62,0.00,,,0.00,Weather View 32 v70,2013-05-07 20:25:00,
2013-05-07 16:30:00,61.0,47.9,30.29,South,180,6.0,22.0,62,0.00,,,0.00,Weather View 32 v70,2013-05-07 20:30:00,
2013-05-07 16:35:00,61.0,47.9,30.29,SW,225,15.0,22.0,62,0.00,,,0.00,Weather View 32 v70,2013-05-07 20:35:00,
2013-05-07 16:40:00,61.0,47.9,30.28,SSW,202,13.0,22.0,62,0.00,,,0.00,Weather View 32 v70,2013-05-07 20:40:00,
2013-05-07 16:45:00,61.0,47.9,30.28,SSW,202,9.0,22.0,62,0.00,,,0.00,Weather View 32 v70,2013-05-07 20:45:00,
2013-05-07 16:50:00,61.0,48.3,30.28,SSW,202,17.0,22.0,63,0.00,,,0.00,Weather View 32 v70,2013-05-07 20:50:00,
2013-05-07 16:55:00,61.0,48.7,30.28,South,180,7.0,22.0,64,0.00,,,0.00,Weather View 32 v70,2013-05-07 20:55:00,
2013-05-07 17:00:00,60.0,47.8,30.28,South,180,6.0,22.0,64,0.00,,,0.00,Weather View 32 v70,2013-05-07 21:00:00,
2013-05-07 17:05:00,60.0,48.2,30.25,South,180,11.0,20.0,65,0.00,,,0.00,Weather View 32 v70,2013-05-07 21:05:00,
2013-05-07 17:10:00,60.0,47.8,30.27,SSW,202,11.0,20.0,64,0.00,,,0.00,Weather View 32 v70,2013-05-07 21:10:00,
2013-05-07 17:15:00,60.0,47.8,30.27,SSW,202,12.0,20.0,64,0.00,,,0.00,Weather View 32 v70,2013-05-07 21:15:00,
2013-05-07 17:20:00,60.0,47.8,30.26,SW,225,13.0,20.0,64,0.00,,,0.00,Weather View 32 v70,2013-05-07 21:20:00,
2013-05-07 17:25:00,60.0,47.8,30.27,SW,225,11.0,20.0,64,0.00,,,0.00,Weather View 32 v70,2013-05-07 21:25:00,
2013-05-07 17:30:00,60.0,47.8,30.27,SSW,202,12.0,20.0,64,0.00,,,0.00,Weather View 32 v70,2013-05-07 21:30:00,
2013-05-07 17:35:00,60.0,48.2,30.28,SW,225,10.0,20.0,65,0.00,,,0.00,Weather View 32 v70,2013-05-07 21:35:00,
2013-05-07 17:40:00,60.0,48.2,30.28,SSW,202,9.0,20.0,65,0.00,,,0.00,Weather View 32 v70,2013-05-07 21:40:00,
2013-05-07 17:45:00,60.0,48.2,30.28,SSW,202,10.0,20.0,65,0.00,,,0.00,Weather View 32 v70,2013-05-07 21:45:00,
2013-05-07 17:50:00,60.0,48.2,30.28,SSW,202,13.0,20.0,65,0.00,,,0.00,Weather View 32 v70,2013-05-07 21:50:00,
2013-05-07 17:55:00,60.0,48.6,30.28,South,180,14.0,20.0,66,0.00,,,0.00,Weather View 32 v70,2013-05-07 21:55:00,
2013-05-07 18:00:00,60.0,49.0,30.28,South,180,9.0,20.0,67,0.00,,,0.00,Weather View 32 v70,2013-05-07 22:00:00,
2013-05-07 18:05:00,59.0,48.4,30.28,SW,225,4.0,19.0,68,0.00,,,0.00,Weather View 32 v70,2013-05-07 22:05:00,
2013-05-07 18:10:00,59.0,48.4,30.28,SW,225,12.0,19.0,68,0.00,,,0.00,Weather View 32 v70,2013-05-07 22:10:00,
2013-05-07 18:15:00,59.0,48.4,30.27,South,180,8.0,19.0,68,0.00,,,0.00,Weather View 32 v70,2013-05-07 22:15:00,
2013-05-07 18:20:00,59.0,48.8,30.27,SSW,202,10.0,19.0,69,0.00,,,0.00,Weather View 32 v70,2013-05-07 22:20:00,
2013-05-07 18:25:00,58.0,48.2,30.27,WSW,247,7.0,19.0,70,0.00,,,0.00,Weather View 32 v70,2013-05-07 22:25:00,
2013-05-07 18:30:00,58.0,48.2,30.27,South,180,9.0,19.0,70,0.00,,,0.00,Weather View 32 v70,2013-05-07 22:30:00,
2013-05-07 18:35:00,58.0,48.6,30.25,SW,225,11.0,18.0,71,0.00,,,0.00,Weather View 32 v70,2013-05-07 22:35:00,
2013-05-07 18:40:00,58.0,48.6,30.27,WSW,247,8.0,18.0,71,0.00,,,0.00,Weather View 32 v70,2013-05-07 22:40:00,
2013-05-07 18:45:00,58.0,49.0,30.27,South,180,7.0,18.0,72,0.00,,,0.00,Weather View 32 v70,2013-05-07 22:45:00,
2013-05-07 18:50:00,58.0,49.4,30.27,South,180,6.0,18.0,73,0.00,,,0.00,Weather View 32 v70,2013-05-07 22:50:00,
2013-05-07 18:55:00,57.0,48.8,30.27,South,180,13.0,18.0,74,0.00,,,0.00,Weather View 32 v70,2013-05-07 22:55:00,
2013-05-07 19:00:00,57.0,48.8,30.27,South,180,6.0,18.0,74,0.00,,,0.00,Weather View 32 v70,2013-05-07 23:00:00,
2013-05-07 19:05:00,57.0,48.8,30.26,SSW,202,12.0,17.0,74,0.00,,,0.00,Weather View 32 v70,2013-05-07 23:05:00,
2013-05-07 19:10:00,56.0,48.2,30.27,SW,225,8.0,17.0,75,0.00,,,0.00,Weather View 32 v70,2013-05-07 23:10:00,
2013-05-07 19:15:00,56.0,48.2,30.26,WSW,247,11.0,17.0,75,0.00,,,0.00,Weather View 32 v70,2013-05-07 23:15:00,
2013-05-07 19:20:00,56.0,48.2,30.26,SW,225,10.0,17.0,75,0.00,,,0.00,Weather View 32 v70,2013-05-07 23:20:00,
2013-05-07 19:25:00,56.0,48.2,30.26,SW,225,6.0,17.0,75,0.00,,,0.00,Weather View 32 v70,2013-05-07 23:25:00,
2013-05-07 19:30:00,56.0,48.5,30.26,SSW,202,7.0,17.0,76,0.00,,,0.00,Weather View 32 v70,2013-05-07 23:30:00,
2013-05-07 19:35:00,55.0,47.9,30.26,SSW,202,7.0,17.0,77,0.00,,,0.00,Weather View 32 v70,2013-05-07 23:35:00,
2013-05-07 19:40:00,55.0,48.6,30.25,WSW,247,12.0,17.0,79,0.00,,,0.00,Weather View 32 v70,2013-05-07 23:40:00,
2013-05-07 19:45:00,55.0,48.9,30.26,SW,225,6.0,17.0,80,0.00,,,0.00,Weather View 32 v70,2013-05-07 23:45:00,
2013-05-07 19:50:00,54.0,48.9,30.26,West,270,3.0,17.0,83,0.00,,,0.00,Weather View 32 v70,2013-05-07 23:50:00,
2013-05-07 19:55:00,54.0,49.6,30.26,WSW,247,4.0,17.0,85,0.00,,,0.00,Weather View 32 v70,2013-05-07 23:55:00,
2013-05-07 20:00:00,54.0,50.8,30.26,SW,225,8.0,15.0,89,0.00,,,0.00,Weather View 32 v70,2013-05-08 00:00:00,
2013-05-07 20:05:00,53.0,50.7,30.26,SSW,202,9.0,15.0,92,0.00,,,0.00,Weather View 32 v70,2013-05-08 00:05:00,
2013-05-07 20:10:00,52.0,50.6,30.25,SSW,202,9.0,15.0,95,0.00,,,0.00,Weather View 32 v70,2013-05-08 00:10:00,
2013-05-07 20:15:00,52.0,51.2,30.25,SW,225,8.0,15.0,97,0.00,,,0.00,Weather View 32 v70,2013-05-08 00:15:00,
2013-05-07 20:20:00,51.0,50.2,30.26,SSW,202,8.0,15.0,97,0.00,,,0.00,Weather View 32 v70,2013-05-08 00:20:00,
2013-05-07 20:25:00,51.0,50.5,30.25,SW,225,6.0,15.0,98,0.00,,,0.00,Weather View 32 v70,2013-05-08 00:25:00,
2013-05-07 20:30:00,52.0,51.5,30.25,SW,225,3.0,15.0,98,0.00,,,0.00,Weather View 32 v70,2013-05-08 00:30:00,
2013-05-07 20:35:00,52.0,51.5,30.26,SSW,202,7.0,15.0,98,0.00,,,0.00,Weather View 32 v70,2013-05-08 00:35:00,
2013-05-07 20:40:00,52.0,51.5,30.26,WSW,247,4.0,15.0,98,0.00,,,0.00,Weather View 32 v70,2013-05-08 00:40:00,
2013-05-07 20:45:00,52.0,51.5,30.27,SSW,202,7.0,15.0,98,0.00,,,0.00,Weather View 32 v70,2013-05-08 00:45:00,
2013-05-07 20:50:00,52.0,51.7,30.27,SW,225,10.0,15.0,99,0.00,,,0.00,Weather View 32 v70,2013-05-08 00:50:00,
2013-05-07 20:55:00,52.0,51.7,30.27,SSW,202,6.0,15.0,99,0.00,,,0.00,Weather View 32 v70,2013-05-08 00:55:00,
2013-05-07 21:00:00,51.0,51.0,30.28,SSW,202,10.0,15.0,100,0.00,,,0.00,Weather View 32 v70,2013-05-08 01:00:00,
2013-05-07 21:05:00,51.0,51.0,30.28,SW,225,4.0,15.0,100,0.00,,,0.00,Weather View 32 v70,2013-05-08 01:05:00,
2013-05-07 21:10:00,51.0,51.0,30.28,SSW,202,7.0,13.0,100,0.00,,,0.00,Weather View 32 v70,2013-05-08 01:10:00,
2013-05-07 21:15:00,51.0,51.0,30.26,SSW,202,7.0,13.0,100,0.00,,,0.00,Weather View 32 v70,2013-05-08 01:15:00,
2013-05-07 21:20:00,51.0,51.0,30.24,SSW,202,7.0,13.0,100,0.00,,,0.00,Weather View 32 v70,2013-05-08 01:20:00,
2013-05-07 21:25:00,51.0,51.0,30.26,SW,225,7.0,13.0,100,0.00,,,0.00,Weather View 32 v70,2013-05-08 01:25:00,
2013-05-07 21:30:00,51.0,51.0,30.27,South,180,5.0,13.0,100,0.00,,,0.00,Weather View 32 v70,2013-05-08 01:30:00,
2013-05-07 21:35:00,51.0,51.0,30.27,SSW,202,6.0,13.0,100,0.00,,,0.00,Weather View 32 v70,2013-05-08 01:35:00,
2013-05-07 21:40:00,51.0,51.0,30.26,South,180,6.0,13.0,100,0.00,,,0.00,Weather View 32 v70,2013-05-08 01:40:00,
2013-05-07 21:45:00,51.0,51.0,30.27,South,180,6.0,13.0,100,0.00,,,0.00,Weather View 32 v70,2013-05-08 01:45:00,
2013-05-07 21:50:00,51.0,51.0,30.27,South,180,2.0,13.0,100,0.00,,,0.00,Weather View 32 v70,2013-05-08 01:50:00,
2013-05-07 21:55:00,51.0,51.0,30.26,SSW,202,6.0,13.0,100,0.00,,,0.00,Weather View 32 v70,2013-05-08 01:55:00,
2013-05-07 22:00:00,51.0,51.0,30.26,SSE,157,4.0,12.0,100,0.00,,,0.00,Weather View 32 v70,2013-05-08 02:00:00,
2013-05-07 22:05:00,51.0,51.0,30.26,West,270,6.0,10.0,100,0.00,,,0.00,Weather View 32 v70,2013-05-08 02:05:00,
2013-05-07 22:10:00,51.0,51.0,30.26,SSW,202,10.0,10.0,100,0.00,,,0.00,Weather View 32 v70,2013-05-08 02:10:00,
2013-05-07 22:15:00,51.0,51.0,30.27,SW,225,7.0,11.0,100,0.00,,,0.00,Weather View 32 v70,2013-05-08 02:15:00,
2013-05-07 22:20:00,51.0,51.0,30.27,SSW,202,9.0,11.0,100,0.00,,,0.00,Weather View 32 v70,2013-05-08 02:20:00,
2013-05-07 22:25:00,51.0,51.0,30.27,SSW,202,9.0,11.0,100,0.00,,,0.00,Weather View 32 v70,2013-05-08 02:25:00,
2013-05-07 22:30:00,51.0,51.0,30.26,SSW,202,7.0,11.0,100,0.00,,,0.00,Weather View 32 v70,2013-05-08 02:30:00,
2013-05-07 22:35:00,51.0,51.0,30.27,SSW,202,8.0,11.0,100,0.00,,,0.00,Weather View 32 v70,2013-05-08 02:35:00,
2013-05-07 22:40:00,51.0,51.0,30.25,SSW,202,8.0,11.0,100,0.00,,,0.00,Weather View 32 v70,2013-05-08 02:40:00,
2013-05-07 22:45:00,51.0,51.0,30.27,SSW,202,7.0,11.0,100,0.00,,,0.00,Weather View 32 v70,2013-05-08 02:45:00,
2013-05-07 22:50:00,51.0,51.0,30.26,SW,225,7.0,11.0,100,0.00,,,0.00,Weather View 32 v70,2013-05-08 02:50:00,
2013-05-07 22:55:00,51.0,51.0,30.27,SSW,202,6.0,11.0,100,0.00,,,0.00,Weather View 32 v70,2013-05-08 02:55:00,
2013-05-07 23:00:00,51.0,51.0,30.27,SSW,202,7.0,11.0,100,0.00,,,0.00,Weather View 32 v70,2013-05-08 03:00:00,
2013-05-07 23:05:00,51.0,51.0,30.27,SSW,202,6.0,11.0,100,0.00,,,0.00,Weather View 32 v70,2013-05-08 03:05:00,
2013-05-07 23:10:00,51.0,51.0,30.27,SW,225,7.0,11.0,100,0.00,,,0.00,Weather View 32 v70,2013-05-08 03:10:00,
2013-05-07 23:15:00,51.0,51.0,30.27,WSW,247,6.0,11.0,100,0.00,,,0.00,Weather View 32 v70,2013-05-08 03:15:00,
2013-05-07 23:20:00,51.0,51.0,30.27,South,180,6.0,11.0,100,0.00,,,0.00,Weather View 32 v70,2013-05-08 03:20:00,
2013-05-07 23:25:00,51.0,51.0,30.28,WSW,247,7.0,11.0,100,0.00,,,0.00,Weather View 32 v70,2013-05-08 03:25:00,
2013-05-07 23:30:00,50.0,50.0,30.28,South,180,8.0,11.0,100,0.00,,,0.00,Weather View 32 v70,2013-05-08 03:30:00,
2013-05-07 23:35:00,50.0,50.0,30.27,SSW,202,7.0,11.0,100,0.00,,,0.00,Weather View 32 v70,2013-05-08 03:35:00,
2013-05-07 23:40:00,50.0,50.0,30.27,SW,225,6.0,11.0,100,0.00,,,0.00,Weather View 32 v70,2013-05-08 03:40:00,
2013-05-07 23:45:00,50.0,50.0,30.27,South,180,6.0,11.0,100,0.00,,,0.00,Weather View 32 v70,2013-05-08 03:45:00,
2013-05-07 23:50:00,50.0,50.0,30.29,SSW,202,5.0,11.0,100,0.00,,,0.00,Weather View 32 v70,2013-05-08 03:50:00,
2013-05-07 23:55:00,50.0,50.0,30.28,South,180,9.0,11.0,100,0.00,,,0.00,Weather View 32 v70,2013-05-08 03:55:00,